When you browse on this site, cookies collect data to enhance your experience and personalize the content and advertising you see.
Visit our Privacy Policy to learn more. By continuing to use the site, you agree to this use of cookies and data.
  • In Romania
  • List of Countries
  • For 7 days
  • Water Temperature
  • Satellite Maps
  • Weather Map
  • Weather Widgets
  • user-avatar
    Login

    Hourly Weather Polunino

    Today, 17 November, Saturday

    Time Temperature Precipitation Wind Pressure Humidity
    00:00 -2°C° 0 mm 1 mps 761 mmHg 23%
    01:00 -2°C° 0 mm 1 mps 761 mmHg 23%
    02:00 -2°C° 0 mm 1 mps 761 mmHg 23%
    03:00 -2°C° 0 mm 1 mps 761 mmHg 23%
    04:00 -2°C° 0 mm 1 mps 760 mmHg 24%
    05:00 -2°C° 0 mm 1 mps 760 mmHg 24%
    06:00 -2°C° 0 mm 1 mps 760 mmHg 24%
    07:00 -2°C° 0 mm 1 mps 759 mmHg 25%
    08:00 -4°C° 0 mm 2 mps 759 mmHg 26%
    09:00 -4°C° 0 mm 2 mps 759 mmHg 26%
    10:00 -3°C° 0 mm 2 mps 759 mmHg 25%
    11:00 -2°C° 0 mm 3 mps 758 mmHg 24%
    12:00 -1°C° 0 mm 3 mps 758 mmHg 24%
    13:00 -1°C° 0 mm 3 mps 757 mmHg 25%
    14:00 -1°C° 0 mm 3 mps 756 mmHg 26%
    15:00 -1°C° 0 mm 4 mps 756 mmHg 28%
    16:00 -2°C° 0 mm 4 mps 755 mmHg 30%
    17:00 -3°C° 0 mm 4 mps 754 mmHg 32%
    18:00 -3°C° 0 mm 4 mps 754 mmHg 34%
    19:00 -3°C° 0 mm 4 mps 753 mmHg 35%
    20:00 -3°C° 0 mm 4 mps 752 mmHg 36%
    21:00 -4°C° 0 mm 5 mps 752 mmHg 38%
    22:00 -4°C° 0 mm 5 mps 751 mmHg 40%
    23:00 -4°C° 0 mm 5 mps 750 mmHg 42%

    Tomorrow, 18 November, Sunday

    Time Temperature Precipitation Wind Pressure Humidity
    00:00 -4°C° 0 mm 5 mps 750 mmHg 44%
    01:00 -4°C° 0 mm 5 mps 749 mmHg 48%
    02:00 -4°C° 0 mm 5 mps 749 mmHg 52%
    03:00 -4°C° 0 mm 5 mps 748 mmHg 55%
    04:00 -4°C° 0 mm 5 mps 747 mmHg 57%
    05:00 -4°C° 0 mm 5 mps 747 mmHg 58%
    06:00 -3°C° 0 mm 4 mps 746 mmHg 60%
    07:00 -3°C° 0 mm 4 mps 746 mmHg 64%
    08:00 -3°C° 0 mm 4 mps 746 mmHg 68%
    09:00 -3°C° 0 mm 4 mps 746 mmHg 72%
    10:00 -3°C° 0 mm 4 mps 746 mmHg 74%
    11:00 -2°C° 0 mm 3 mps 746 mmHg 77%
    12:00 -1°C° 0 mm 3 mps 746 mmHg 79%
    13:00 -1°C° 0 mm 3 mps 746 mmHg 80%
    14:00 -1°C° 0 mm 3 mps 746 mmHg 81%
    15:00 -1°C° 0 mm 3 mps 746 mmHg 82%
    16:00 -1°C° 0 mm 2 mps 746 mmHg 84%
    17:00 -2°C° 0 mm 2 mps 746 mmHg 86%
    18:00 -2°C° 0 mm 2 mps 746 mmHg 88%
    19:00 -2°C° 0 mm 2 mps 746 mmHg 88%
    20:00 -2°C° 0 mm 2 mps 746 mmHg 89%
    21:00 0°C° 0 mm 1 mps 746 mmHg 90%
    22:00 0°C° 0 mm 1 mps 747 mmHg 90%
    23:00 0°C° 0 mm 1 mps 747 mmHg 91%

    Day after tomorrow, 19 November, Monday

    Time Temperature Precipitation Wind Pressure Humidity
    00:00 0°C° 0 mm 1 mps 747 mmHg 91%
    01:00 0°C° 0 mm 1 mps 748 mmHg 91%
    02:00 0°C° 0 mm 1 mps 748 mmHg 92%
    03:00 0°C° 0 mm 1 mps 748 mmHg 92%
    04:00 0°C° 0 mm 1 mps 748 mmHg 92%
    05:00 0°C° 0 mm 1 mps 749 mmHg 93%
    06:00 -1°C° 0 mm 0 mps 749 mmHg 93%
    07:00 0°C° 0 mm 1 mps 749 mmHg 94%
    08:00 0°C° 0 mm 1 mps 749 mmHg 94%
    09:00 0°C° 0 mm 1 mps 750 mmHg 94%
    10:00 +1°C° 0 mm 1 mps 750 mmHg 92%
    11:00 +1°C° 0 mm 1 mps 751 mmHg 89%
    12:00 +2°C° 0 mm 1 mps 751 mmHg 86%
    13:00 +2°C° 0 mm 1 mps 751 mmHg 87%
    14:00 +2°C° 0 mm 1 mps 751 mmHg 88%
    15:00 +2°C° 0 mm 1 mps 752 mmHg 89%
    16:00 -1°C° 0 mm 2 mps 752 mmHg 91%
    17:00 -2°C° 0 mm 2 mps 752 mmHg 93%
    18:00 -2°C° 0 mm 2 mps 752 mmHg 95%
    19:00 -2°C° 0 mm 2 mps 752 mmHg 95%
    20:00 -2°C° 0 mm 2 mps 752 mmHg 96%
    21:00 -3°C° 0 mm 2 mps 752 mmHg 96%
    22:00 -2°C° 0 mm 2 mps 752 mmHg 96%
    23:00 -2°C° 0 mm 2 mps 752 mmHg 96%

    20 November, Tuesday

    Time Temperature Precipitation Wind Pressure Humidity
    00:00 -2°C° 0 mm 2 mps 753 mmHg 95%
    01:00 -2°C° 0 mm 2 mps 753 mmHg 95%
    02:00 -2°C° 0 mm 2 mps 753 mmHg 95%
    03:00 -2°C° 0 mm 2 mps 752 mmHg 95%
    04:00 -2°C° 0 mm 2 mps 752 mmHg 95%
    05:00 -2°C° 0 mm 2 mps 752 mmHg 96%
    06:00 -2°C° 0 mm 2 mps 752 mmHg 96%
    07:00 -2°C° 0 mm 2 mps 752 mmHg 95%
    08:00 -2°C° 0 mm 3 mps 752 mmHg 94%
    09:00 -2°C° 0 mm 3 mps 752 mmHg 94%
    10:00 -1°C° 0 mm 3 mps 752 mmHg 91%
    11:00 -1°C° 0 mm 3 mps 751 mmHg 87%
    12:00 -1°C° 0 mm 3 mps 751 mmHg 84%
    13:00 -1°C° 0 mm 2 mps 751 mmHg 84%
    14:00 -1°C° 0 mm 2 mps 751 mmHg 83%
    15:00 -1°C° 0 mm 2 mps 750 mmHg 82%
    16:00 -1°C° 0 mm 2 mps 750 mmHg 83%
    17:00 -2°C° 0 mm 2 mps 750 mmHg 84%
    18:00 0°C° 0 mm 1 mps 750 mmHg 86%
    19:00 0°C° 0 mm 1 mps 750 mmHg 86%
    20:00 0°C° 0 mm 1 mps 750 mmHg 86%
    21:00 0°C° 0 mm 1 mps 750 mmHg 86%
    22:00 0°C° 0 mm 1 mps 749 mmHg 85%
    23:00 0°C° 0 mm 1 mps 749 mmHg 85%

    21 November, Wednesday

    Time Temperature Precipitation Wind Pressure Humidity
    00:00 0°C° 0 mm 1 mps 749 mmHg 85%
    01:00 0°C° 0 mm 1 mps 749 mmHg 85%
    02:00 0°C° 0 mm 1 mps 749 mmHg 85%
    03:00 -2°C° 0 mm 2 mps 748 mmHg 85%
    04:00 -2°C° 0 mm 2 mps 748 mmHg 84%
    05:00 -2°C° 0 mm 2 mps 748 mmHg 84%
    06:00 -2°C° 0 mm 2 mps 748 mmHg 84%
    07:00 -2°C° 0 mm 2 mps 748 mmHg 83%
    08:00 -2°C° 0 mm 3 mps 748 mmHg 82%
    09:00 -2°C° 0 mm 3 mps 748 mmHg 81%
    10:00 -2°C° 0 mm 3 mps 748 mmHg 79%
    11:00 -2°C° 0 mm 3 mps 748 mmHg 76%
    12:00 -2°C° 0 mm 4 mps 747 mmHg 73%
    13:00 -3°C° 0 mm 4 mps 747 mmHg 73%
    14:00 -3°C° 0 mm 4 mps 747 mmHg 74%
    15:00 -3°C° 0 mm 4 mps 747 mmHg 74%
    16:00 -3°C° 0 mm 4 mps 747 mmHg 75%
    17:00 -4°C° 0 mm 4 mps 747 mmHg 77%
    18:00 -4°C° 0 mm 4 mps 747 mmHg 78%
    19:00 -4°C° 0 mm 4 mps 747 mmHg 79%
    20:00 -4°C° 0 mm 3 mps 747 mmHg 80%
    21:00 -4°C° 0 mm 3 mps 747 mmHg 80%
    22:00 -4°C° 0 mm 3 mps 747 mmHg 82%
    23:00 -2°C° 0 mm 3 mps 747 mmHg 84%

    22 November, Thursday

    Time Temperature Precipitation Wind Pressure Humidity
    00:00 -2°C° 0 mm 3 mps 747 mmHg 85%
    01:00 -4°C° 0 mm 3 mps 747 mmHg 85%
    02:00 -4°C° 0 mm 3 mps 747 mmHg 86%
    03:00 -4°C° 0 mm 3 mps 746 mmHg 86%
    04:00 -4°C° 0 mm 3 mps 746 mmHg 84%
    05:00 -4°C° 0 mm 3 mps 746 mmHg 83%
    06:00 -4°C° 0 mm 3 mps 746 mmHg 81%
    07:00 -4°C° 0 mm 3 mps 746 mmHg 81%
    08:00 -4°C° 0 mm 4 mps 746 mmHg 80%
    09:00 -4°C° 0 mm 4 mps 746 mmHg 79%
    10:00 -4°C° 0 mm 4 mps 746 mmHg 76%
    11:00 -4°C° 0 mm 5 mps 746 mmHg 73%
    12:00 -4°C° 0 mm 5 mps 746 mmHg 70%
    13:00 -4°C° 0 mm 5 mps 745 mmHg 71%
    14:00 -4°C° 0 mm 5 mps 745 mmHg 72%
    15:00 -4°C° 0 mm 5 mps 745 mmHg 73%
    16:00 -4°C° 0 mm 6 mps 745 mmHg 75%
    17:00 -5°C° 0 mm 6 mps 745 mmHg 77%
    18:00 -5°C° 0 mm 6 mps 745 mmHg 79%
    19:00 -5°C° 0 mm 6 mps 745 mmHg 79%
    20:00 -4°C° 0 mm 5 mps 745 mmHg 79%
    21:00 -4°C° 0 mm 5 mps 745 mmHg 79%
    22:00 -4°C° 0 mm 5 mps 746 mmHg 81%
    23:00 -5°C° 0 mm 5 mps 746 mmHg 82%
    Show more